When you browse on this site, cookies collect data to enhance your experience and personalize the content and advertising you see.
Visit our Privacy Policy to learn more. By continuing to use the site, you agree to this use of cookies and data.
  • en France
  • Liste des pays
  • À 7 jours
  • Température de l'eau
  • Carte satellitaire
  • Carte météo
  • Widgets météo
  • user-avatar
    Se connecter

    Météo par heure à Côte de l'Or

    Ce jour, 17 Juillet, Mercredi

    Heure Température Précipitation Vent Pression Humidité
    00:00 +10°C° 0 mm 2 m/s 759 mmHg 63%
    01:00 +10°C° 0 mm 2 m/s 759 mmHg 65%
    02:00 +9°C° 0 mm 2 m/s 759 mmHg 67%
    03:00 +9°C° 0 mm 2 m/s 759 mmHg 70%
    04:00 +9°C° 0 mm 3 m/s 759 mmHg 71%
    05:00 +9°C° 0 mm 3 m/s 759 mmHg 71%
    06:00 +9°C° 0 mm 3 m/s 760 mmHg 72%
    07:00 +9°C° 0 mm 3 m/s 760 mmHg 73%
    08:00 +13°C° 0 mm 2 m/s 760 mmHg 64%
    09:00 +17°C° 0 mm 2 m/s 760 mmHg 56%
    10:00 +20°C° 0 mm 2 m/s 760 mmHg 45%
    11:00 +21°C° 0 mm 2 m/s 759 mmHg 45%
    12:00 +21°C° 0 mm 2 m/s 759 mmHg 44%
    13:00 +23°C° 0 mm 2 m/s 758 mmHg 44%
    14:00 +21°C° 0 mm 2 m/s 758 mmHg 48%
    15:00 +20°C° 0 mm 2 m/s 758 mmHg 52%
    16:00 +20°C° 0 mm 2 m/s 757 mmHg 56%
    17:00 +17°C° 0 mm 2 m/s 758 mmHg 65%
    18:00 +15°C° 0 mm 2 m/s 758 mmHg 73%
    19:00 +13°C° 0 mm 2 m/s 758 mmHg 81%
    20:00 +12°C° 0 mm 3 m/s 758 mmHg 81%
    21:00 +11°C° 0 mm 3 m/s 758 mmHg 82%
    22:00 +11°C° 0 mm 3 m/s 758 mmHg 82%
    23:00 +10°C° 0 mm 3 m/s 758 mmHg 82%

    Demain, 18 Juillet, Jeudi

    Heure Température Précipitation Vent Pression Humidité
    00:00 +10°C° 0 mm 3 m/s 758 mmHg 82%
    01:00 +9°C° 0 mm 3 m/s 758 mmHg 82%
    02:00 +9°C° 0 mm 3 m/s 758 mmHg 82%
    03:00 +9°C° 0 mm 3 m/s 757 mmHg 82%
    04:00 +8°C° 0 mm 3 m/s 757 mmHg 82%
    05:00 +8°C° 0 mm 3 m/s 758 mmHg 81%
    06:00 +8°C° 0 mm 2 m/s 758 mmHg 80%
    07:00 +8°C° 0 mm 2 m/s 759 mmHg 79%
    08:00 +12°C° 0 mm 2 m/s 759 mmHg 66%
    09:00 +15°C° 0 mm 1 m/s 759 mmHg 53%
    10:00 +19°C° 0 mm 1 m/s 759 mmHg 40%
    11:00 +20°C° 0 mm 1 m/s 758 mmHg 37%
    12:00 +22°C° 0 mm 1 m/s 757 mmHg 33%
    13:00 +23°C° 0 mm 1 m/s 757 mmHg 29%
    14:00 +21°C° 0 mm 2 m/s 757 mmHg 35%
    15:00 +19°C° 0 mm 2 m/s 757 mmHg 42%
    16:00 +18°C° 0 mm 3 m/s 757 mmHg 48%
    17:00 +16°C° 0 mm 3 m/s 758 mmHg 57%
    18:00 +13°C° 0 mm 3 m/s 758 mmHg 65%
    19:00 +11°C° 0 mm 3 m/s 759 mmHg 73%
    20:00 +10°C° 0 mm 3 m/s 759 mmHg 74%
    21:00 +10°C° 0 mm 3 m/s 760 mmHg 74%
    22:00 +9°C° 0 mm 2 m/s 760 mmHg 75%
    23:00 +9°C° 0 mm 2 m/s 760 mmHg 74%

    Après-demain, 19 Juillet, Vendredi

    Heure Température Précipitation Vent Pression Humidité
    00:00 +9°C° 0 mm 2 m/s 760 mmHg 73%
    01:00 +9°C° 0 mm 2 m/s 760 mmHg 72%
    02:00 +9°C° 0 mm 2 m/s 760 mmHg 72%
    03:00 +9°C° 0 mm 2 m/s 760 mmHg 73%
    04:00 +9°C° 0 mm 2 m/s 760 mmHg 74%
    05:00 +9°C° 0 mm 2 m/s 761 mmHg 75%
    06:00 +9°C° 0 mm 2 m/s 761 mmHg 76%
    07:00 +9°C° 0 mm 2 m/s 761 mmHg 77%
    08:00 +13°C° 0 mm 2 m/s 761 mmHg 67%
    09:00 +16°C° 0 mm 1 m/s 761 mmHg 56%
    10:00 +20°C° 0 mm 1 m/s 761 mmHg 45%
    11:00 +21°C° 0 mm 1 m/s 761 mmHg 42%
    12:00 +22°C° 0 mm 1 m/s 760 mmHg 39%
    13:00 +23°C° 0 mm 1 m/s 760 mmHg 36%
    14:00 +21°C° 0 mm 2 m/s 760 mmHg 40%
    15:00 +20°C° 0 mm 2 m/s 760 mmHg 44%
    16:00 +20°C° 0 mm 2 m/s 760 mmHg 48%
    17:00 +17°C° 0 mm 2 m/s 760 mmHg 57%
    18:00 +15°C° 0 mm 2 m/s 761 mmHg 67%
    19:00 +12°C° 0 mm 2 m/s 762 mmHg 77%
    20:00 +12°C° 0 mm 1 m/s 762 mmHg 78%
    21:00 +12°C° 0 mm 1 m/s 762 mmHg 79%
    22:00 +11°C° 0 mm 1 m/s 763 mmHg 80%
    23:00 +11°C° 0 mm 1 m/s 763 mmHg 80%

    20 Juillet, Samedi

    Heure Température Précipitation Vent Pression Humidité
    00:00 +11°C° 0 mm 1 m/s 763 mmHg 80%
    01:00 +11°C° 0 mm 1 m/s 762 mmHg 80%
    02:00 +10°C° 0 mm 2 m/s 763 mmHg 81%
    03:00 +10°C° 0 mm 2 m/s 763 mmHg 82%
    04:00 +9°C° 0 mm 2 m/s 763 mmHg 82%
    05:00 +9°C° 0 mm 2 m/s 763 mmHg 82%
    06:00 +9°C° 0 mm 2 m/s 763 mmHg 82%
    07:00 +9°C° 0 mm 2 m/s 763 mmHg 82%
    08:00 +14°C° 0 mm 2 m/s 764 mmHg 71%
    09:00 +18°C° 0 mm 1 m/s 764 mmHg 60%
    10:00 +21°C° 0 mm 1 m/s 764 mmHg 50%
    11:00 +21°C° 0 mm 1 m/s 763 mmHg 49%
    12:00 +21°C° 0 mm 2 m/s 762 mmHg 49%
    13:00 +21°C° 0 mm 2 m/s 762 mmHg 49%
    14:00 +20°C° 0 mm 2 m/s 761 mmHg 53%
    15:00 +19°C° 0 mm 2 m/s 761 mmHg 57%
    16:00 +19°C° 0 mm 2 m/s 761 mmHg 61%
    17:00 +17°C° 0 mm 2 m/s 761 mmHg 70%
    18:00 +15°C° 0 mm 1 m/s 762 mmHg 79%
    19:00 +13°C° 0 mm 1 m/s 762 mmHg 89%
    20:00 +12°C° 0 mm 1 m/s 762 mmHg 89%
    21:00 +12°C° 0 mm 1 m/s 763 mmHg 89%
    22:00 +12°C° 0 mm 1 m/s 763 mmHg 89%
    23:00 +12°C° 0 mm 1 m/s 762 mmHg 88%

    21 Juillet, Dimanche

    Heure Température Précipitation Vent Pression Humidité
    00:00 +11°C° 0 mm 1 m/s 762 mmHg 88%
    01:00 +11°C° 0 mm 1 m/s 762 mmHg 87%
    02:00 +10°C° 0 mm 2 m/s 762 mmHg 87%
    03:00 +10°C° 0 mm 2 m/s 762 mmHg 87%
    04:00 +10°C° 0 mm 2 m/s 761 mmHg 87%
    05:00 +10°C° 0 mm 2 m/s 762 mmHg 86%
    06:00 +10°C° 0 mm 2 m/s 762 mmHg 86%
    07:00 +10°C° 0 mm 2 m/s 762 mmHg 85%
    08:00 +14°C° 0 mm 2 m/s 762 mmHg 74%
    09:00 +16°C° 0 mm 2 m/s 762 mmHg 64%
    10:00 +19°C° 0 mm 3 m/s 762 mmHg 53%
    11:00 +20°C° 0 mm 3 m/s 761 mmHg 49%
    12:00 +21°C° 0 mm 3 m/s 761 mmHg 45%
    13:00 +22°C° 0 mm 3 m/s 760 mmHg 41%
    14:00 +21°C° 0 mm 3 m/s 759 mmHg 44%
    15:00 +21°C° 0 mm 3 m/s 759 mmHg 47%
    16:00 +20°C° 0 mm 3 m/s 759 mmHg 51%
    17:00 +18°C° 0 mm 3 m/s 760 mmHg 61%
    18:00 +14°C° 0 mm 3 m/s 760 mmHg 72%
    19:00 +13°C° 0 mm 2 m/s 761 mmHg 83%
    20:00 +13°C° 0 mm 2 m/s 761 mmHg 84%
    21:00 +13°C° 0 mm 2 m/s 761 mmHg 85%
    22:00 +12°C° 0 mm 2 m/s 761 mmHg 86%
    23:00 +12°C° 0 mm 2 m/s 761 mmHg 87%

    22 Juillet, Lundi

    Heure Température Précipitation Vent Pression Humidité
    00:00 +12°C° 0 mm 2 m/s 761 mmHg 88%
    01:00 +12°C° 0 mm 2 m/s 761 mmHg 89%
    02:00 +12°C° 0 mm 2 m/s 760 mmHg 89%
    03:00 +12°C° 0 mm 2 m/s 760 mmHg 89%
    04:00 +12°C° 0 mm 2 m/s 760 mmHg 89%
    05:00 +12°C° 0 mm 2 m/s 761 mmHg 89%
    06:00 +12°C° 0 mm 2 m/s 761 mmHg 88%
    07:00 +12°C° 0 mm 2 m/s 762 mmHg 88%
    08:00 +15°C° 0 mm 2 m/s 762 mmHg 77%
    09:00 +18°C° 0 mm 2 m/s 762 mmHg 67%
    10:00 +21°C° 0 mm 2 m/s 762 mmHg 56%
    11:00 +20°C° 0.2 mm 2 m/s 761 mmHg 61%
    12:00 +20°C° 0.2 mm 2 m/s 761 mmHg 66%
    13:00 +20°C° 0.2 mm 2 m/s 760 mmHg 71%
    14:00 +20°C° 0 mm 2 m/s 760 mmHg 71%
    15:00 +19°C° 0 mm 2 m/s 760 mmHg 71%
    16:00 +19°C° 0 mm 2 m/s 760 mmHg 71%
    17:00 +18°C° 0.1 mm 2 m/s 760 mmHg 77%
    18:00 +16°C° 0.1 mm 2 m/s 760 mmHg 83%
    19:00 +14°C° 0.1 mm 2 m/s 761 mmHg 89%
    20:00 +14°C° 0.1 mm 2 m/s 761 mmHg 89%
    21:00 +14°C° 0.1 mm 2 m/s 761 mmHg 88%
    22:00 +14°C° 0.1 mm 2 m/s 761 mmHg 87%
    23:00 +14°C° 0 mm 2 m/s 761 mmHg 89%
    Voir plus